Location: Bittelbronn
(48.4454°N, 8.5870°E)
Time: 18:34:52
(UTC+00:00)

Cosmos 1953 - Pass Details

Date: 23 May 2024
Orbit: 509 x 531 km, 82.5° (Epoch: 23 June)

Event Time Altitude Azimuth Distance (km) Brightness Sun altitude
Rises 00:59:29 0° 347° (NNW) 2,687 6.7 -17.6°
Reaches altitude 10° 01:01:39 10° 345° (NNW) 1,789 5.6 -17.4°
Maximum altitude 01:05:32 63° 264° (W) 593 2.3 -17.2°
Enters shadow 01:06:48 39° 199° (SSW) 807 2.6 -17.1°
